Location: Mountain Grove
(34.0887°N, 86.6172°W)
Time: 21:58:13
(UTC+00:00)

Terra - Pass Details

Date: 14 July 2020
Orbit: 701 x 703 km, 98.2° (Epoch: 08 August)

Event Time Altitude Azimuth Distance (km) Brightness Sun altitude
Exits shadow 03:56:53 68° 339° (NNW) 760 2.0 -27.9°
Drops below altitude 10° 04:01:02 10° 347° (NNW) 2,175 5.2 -28.3°
Sets 04:03:18 0° 348° (NNW) 3,096 6.3 -28.5°
